,,,PA_Meas_PMT16A,,PR_Meas_QMR101_102,,RH_Meas_QMH101,,SR_Meas_QMS101,,TA_Meas_QMH101,,GenWind,,GenWind,
date,time,status,PA,status,PR,status,RH,status,SR,status,TA,status,DirAvg,status,SpdAvg,
2013-01-14, 00:00:05,VALID,1010.19,VALID,0,VALID,101.285,VALID,0.112112,VALID,25.5261,VALID,315,VALID,0.255078,
2013-01-14, 00:01:05,VALID,1010.21,VALID,0,VALID,101.514,VALID,0,VALID,25.5242,VALID,315,VALID,0.271484,
2013-01-14, 00:02:05,VALID,1010.19,VALID,0,VALID,101.453,VALID,0,VALID,25.4852,VALID,315,VALID,0.323438,
2013-01-14, 00:03:05,VALID,1010.2,VALID,0,VALID,101.468,VALID,0.112112,VALID,25.4462,VALID,315,VALID,0.39375,
2013-01-14, 00:04:05,VALID,1010.2,VALID,0,VALID,101.506,VALID,0.112112,VALID,25.4657,VALID,316,VALID,0.184766,
2013-01-14, 00:05:05,VALID,1010.19,VALID,0,VALID,101.56,VALID,0,VALID,25.4871,VALID,314,VALID,0.276172,
2013-01-14, 00:06:05,VALID,1010.21,VALID,0,VALID,101.56,VALID,0.112112,VALID,25.4462,VALID,316,VALID,0,
2013-01-14, 00:07:05,VALID,1010.17,VALID,0,VALID,101.545,VALID,0,VALID,25.4677,VALID,315,VALID,0.358594,
2013-01-14, 00:08:05,VALID,1010.14,VALID,0,VALID,101.567,VALID,0,VALID,25.4462,VALID,315,VALID,0.508984,
2013-01-14, 00:09:05,VALID,1010.15,VALID,0,VALID,101.636,VALID,0,VALID,25.4657,VALID,316,VALID,0.235547,
2013-01-14, 00:10:05,VALID,1010.12,VALID,0,VALID,101.705,VALID,0,VALID,25.4657,VALID,317,VALID,0.639844,
2013-01-14, 00:11:05,VALID,1010.12,VALID,0,VALID,101.735,VALID,0,VALID,25.4871,VALID,321,VALID,0.526953,
2013-01-14, 00:12:05,VALID,1010.09,VALID,0,VALID,101.689,VALID,0.112112,VALID,25.4462,VALID,321,VALID,0.382031,
2013-01-14, 00:13:05,VALID,1010.07,VALID,0,VALID,101.552,VALID,0.112112,VALID,25.4657,VALID,320,VALID,0.544141,
2013-01-14, 00:14:05,VALID,1010.06,VALID,0,VALID,101.621,VALID,0,VALID,25.4871,VALID,320,VALID,0.301172,
2013-01-14, 00:15:05,VALID,1010.05,VALID,0,VALID,101.636,VALID,0.112112,VALID,25.4462,VALID,320,VALID,0.5375,
2013-01-14, 00:16:05,VALID,1010.07,VALID,0,VALID,101.644,VALID,0,VALID,25.4482,VALID,320,VALID,0.235156,
2013-01-14, 00:17:05,VALID,1010.08,VALID,0,VALID,101.796,VALID,0,VALID,25.4267,VALID,320,VALID,0,
2013-01-14, 00:18:05,VALID,1010.09,VALID,0,VALID,101.941,VALID,0,VALID,25.4072,VALID,301,VALID,0.913281,
2013-01-14, 00:19:05,VALID,1010.12,VALID,0,VALID,101.972,VALID,0,VALID,25.4287,VALID,302,VALID,0.451562,
2013-01-14, 00:20:05,VALID,1010.11,VALID,0,VALID,101.987,VALID,0,VALID,25.4287,VALID,304,VALID,0.417578,
2013-01-14, 00:21:05,VALID,1010.15,VALID,0,VALID,101.903,VALID,0.112112,VALID,25.4267,VALID,308,VALID,0.367188,
2013-01-14, 00:22:05,VALID,1010.11,VALID,0,VALID,101.888,VALID,0.112112,VALID,25.4482,VALID,308,VALID,0.468359,
2013-01-14, 00:23:05,VALID,1010.07,VALID,0,VALID,101.941,VALID,0,VALID,25.4072,VALID,307,VALID,0.00859375,
2013-01-14, 00:24:05,VALID,1010.08,VALID,0,VALID,101.941,VALID,0,VALID,25.4072,VALID,308,VALID,0.367188,
2013-01-14, 00:25:05,VALID,1010.07,VALID,0,VALID,102.002,VALID,0,VALID,25.3683,VALID,307,VALID,0.351563,
2013-01-14, 00:26:05,VALID,1010.05,VALID,0,VALID,102.109,VALID,0.112112,VALID,25.3877,VALID,308,VALID,0.310156,
2013-01-14, 00:27:05,VALID,1010.06,VALID,0,VALID,102.04,VALID,0,VALID,25.3683,VALID,306,VALID,0.407813,
2013-01-14, 00:28:05,VALID,1010.07,VALID,0,VALID,102.132,VALID,0,VALID,25.3683,VALID,307,VALID,0.375391,
2013-01-14, 00:29:05,VALID,1010.07,VALID,0,VALID,102.055,VALID,0,VALID,25.3897,VALID,302,VALID,0.978906,
2013-01-14, 00:30:05,VALID,1010.08,VALID,0,VALID,102.01,VALID,0,VALID,25.3683,VALID,303,VALID,0.620703,
2013-01-14, 00:31:05,VALID,1010.07,VALID,0,VALID,101.972,VALID,0,VALID,25.3877,VALID,303,VALID,0.446484,
2013-01-14, 00:32:05,VALID,1010.04,VALID,0,VALID,101.933,VALID,0,VALID,25.3897,VALID,302,VALID,0.236719,
2013-01-14, 00:33:05,VALID,1010.03,VALID,0,VALID,101.903,VALID,0,VALID,25.4092,VALID,302,VALID,0.483594,
2013-01-14, 00:34:05,VALID,1010.07,VALID,0,VALID,101.903,VALID,0,VALID,25.4092,VALID,304,VALID,0.178906,
2013-01-14, 00:35:05,VALID,1010.07,VALID,0,VALID,101.926,VALID,0,VALID,25.4092,VALID,303,VALID,0.261328,
2013-01-14, 00:36:05,VALID,1010.12,VALID,0,VALID,101.956,VALID,0,VALID,25.4111,VALID,303,VALID,0.171484,
2013-01-14, 00:37:05,VALID,1010.12,VALID,0,VALID,102.002,VALID,0,VALID,25.4111,VALID,303,VALID,0.482422,
2013-01-14, 00:38:05,VALID,1010.09,VALID,0,VALID,102.055,VALID,0,VALID,25.3702,VALID,303,VALID,0.405859,
2013-01-14, 00:39:05,VALID,1010.07,VALID,0,VALID,102.071,VALID,0,VALID,25.3897,VALID,307,VALID,0.476172,
2013-01-14, 00:40:05,VALID,1010.07,VALID,0,VALID,101.918,VALID,0,VALID,25.3702,VALID,310,VALID,0.617188,
2013-01-14, 00:41:05,VALID,1010.07,VALID,0,VALID,101.888,VALID,0,VALID,25.3897,VALID,310,VALID,0.508594,
2013-01-14, 00:42:05,VALID,1010.04,VALID,0,VALID,101.796,VALID,0,VALID,25.3897,VALID,318,VALID,0.767969,
2013-01-14, 00:43:05,VALID,1010,VALID,0,VALID,101.712,VALID,0,VALID,25.3702,VALID,328,VALID,0.678516,
2013-01-14, 00:44:05,VALID,1009.98,VALID,0,VALID,101.796,VALID,0,VALID,25.3702,VALID,328,VALID,0.363281,
2013-01-14, 00:45:05,VALID,1009.98,VALID,0,VALID,101.903,VALID,0,VALID,25.3702,VALID,338,VALID,0.742969,
2013-01-14, 00:46:05,VALID,1009.96,VALID,0,VALID,101.918,VALID,0,VALID,25.3526,VALID,345,VALID,0.182031,
2013-01-14, 00:47:05,VALID,1009.91,VALID,0,VALID,102.002,VALID,0,VALID,25.3098,VALID,345,VALID,0.352734,
2013-01-14, 00:48:05,VALID,1009.91,VALID,0,VALID,102.071,VALID,0,VALID,25.3098,VALID,345,VALID,0.462109,
2013-01-14, 00:49:05,VALID,1009.9,VALID,0,VALID,102.299,VALID,0,VALID,25.2903,VALID,345,VALID,0.666016,
2013-01-14, 00:50:05,VALID,1009.85,VALID,0,VALID,102.376,VALID,0,VALID,25.2513,VALID,345,VALID,0.657422,
2013-01-14, 00:51:05,VALID,1009.85,VALID,0,VALID,102.482,VALID,0.112112,VALID,25.2123,VALID,351,VALID,0.623438,
2013-01-14, 00:52:05,VALID,1009.83,VALID,0,VALID,102.65,VALID,0,VALID,25.2142,VALID,360,VALID,0.46875,
2013-01-14, 00:53:05,VALID,1009.84,VALID,0,VALID,102.757,VALID,0,VALID,25.1733,VALID,360,VALID,0.288281,
2013-01-14, 00:54:05,VALID,1009.79,VALID,0,VALID,102.833,VALID,0.112112,VALID,25.1343,VALID,360,VALID,0.00234375,
2013-01-14, 00:55:05,VALID,1009.81,VALID,0,VALID,102.993,VALID,0,VALID,25.1148,VALID,360,VALID,0.100391,
2013-01-14, 00:56:05,VALID,1009.8,VALID,0,VALID,103.085,VALID,0,VALID,25.0954,VALID,360,VALID,0.156641,
2013-01-14, 00:57:05,VALID,1009.8,VALID,0,VALID,103.169,VALID,0,VALID,25.0564,VALID,360,VALID,0.170703,
2013-01-14, 00:58:05,VALID,1009.77,VALID,0,VALID,103.337,VALID,0,VALID,25.0759,VALID,360,VALID,0.0527344,
2013-01-14, 00:59:05,VALID,1009.77,VALID,0,VALID,103.42,VALID,0.112112,VALID,25.0954,VALID,360,VALID,0.0269531,
2013-01-14, 01:00:05,VALID,1009.79,VALID,0,VALID,103.436,VALID,0,VALID,25.0973,VALID,360,VALID,0.396094,
2013-01-14, 01:01:05,VALID,1009.79,VALID,0,VALID,103.474,VALID,0.112112,VALID,25.1148,VALID,345,VALID,0.378906,
2013-01-14, 01:02:05,VALID,1009.79,VALID,0,VALID,103.497,VALID,0,VALID,25.1362,VALID,344,VALID,0.223438,
2013-01-14, 01:03:05,VALID,1009.77,VALID,0,VALID,103.535,VALID,0,VALID,25.1167,VALID,321,VALID,0.614062,
2013-01-14, 01:04:05,VALID,1009.77,VALID,0,VALID,103.504,VALID,0,VALID,25.0973,VALID,314,VALID,0.329688,
2013-01-14, 01:05:05,VALID,1009.76,VALID,0,VALID,103.443,VALID,0,VALID,25.0973,VALID,314,VALID,0.277344,
2013-01-14, 01:06:05,VALID,1009.76,VALID,0,VALID,103.42,VALID,0,VALID,25.0973,VALID,301,VALID,0.723047,
2013-01-14, 01:07:05,VALID,1009.78,VALID,0,VALID,103.405,VALID,0,VALID,25.1167,VALID,301,VALID,0.241016,
2013-01-14, 01:08:05,VALID,1009.77,VALID,0,VALID,103.367,VALID,0,VALID,25.1167,VALID,301,VALID,0.121094,
2013-01-14, 01:09:05,VALID,1009.78,VALID,0,VALID,103.344,VALID,0,VALID,25.0992,VALID,301,VALID,0.39375,
2013-01-14, 01:10:05,VALID,1009.78,VALID,0,VALID,103.413,VALID,0,VALID,25.0778,VALID,303,VALID,0.421875,
2013-01-14, 01:11:05,VALID,1009.77,VALID,0,VALID,103.459,VALID,0,VALID,25.0778,VALID,314,VALID,0.66875,
2013-01-14, 01:12:05,VALID,1009.79,VALID,0,VALID,103.573,VALID,0,VALID,25.0583,VALID,315,VALID,0.446875,
2013-01-14, 01:13:05,VALID,1009.8,VALID,0,VALID,103.619,VALID,0,VALID,25.0193,VALID,321,VALID,0.722266,
2013-01-14, 01:14:05,VALID,1009.79,VALID,0,VALID,103.687,VALID,0,VALID,24.9998,VALID,324,VALID,0.354297,
2013-01-14, 01:15:05,VALID,1009.78,VALID,0,VALID,103.779,VALID,0,VALID,25.0212,VALID,324,VALID,0.333203,
2013-01-14, 01:16:05,VALID,1009.78,VALID,0,VALID,103.848,VALID,0,VALID,24.9803,VALID,324,VALID,0.303125,
2013-01-14, 01:17:05,VALID,1009.79,VALID,0,VALID,103.878,VALID,0,VALID,24.9589,VALID,324,VALID,0.555469,
2013-01-14, 01:18:05,VALID,1009.79,VALID,0,VALID,103.97,VALID,0,VALID,24.9589,VALID,345,VALID,0.653906,
2013-01-14, 01:19:05,VALID,1009.78,VALID,0,VALID,104,VALID,0.112112,VALID,24.9998,VALID,18,VALID,0.541016,
2013-01-14, 01:20:05,VALID,1009.82,VALID,0,VALID,104,VALID,0.112112,VALID,24.9784,VALID,18,VALID,0.478125,
2013-01-14, 01:21:05,VALID,1009.82,VALID,0,VALID,104,VALID,0.112112,VALID,24.9589,VALID,10,VALID,0.680469,
2013-01-14, 01:22:05,VALID,1009.83,VALID,0,VALID,104,VALID,0.112112,VALID,24.9394,VALID,359,VALID,0.611719,
2013-01-14, 01:23:05,VALID,1009.84,VALID,0,VALID,104,VALID,0,VALID,24.9394,VALID,4,VALID,0.384375,
2013-01-14, 01:24:04,VALID,1009.84,VALID,0,VALID,104,VALID,0,VALID,24.9394,VALID,4,VALID,0.236719,
2013-01-14, 01:25:04,VALID,1009.83,VALID,0,VALID,104,VALID,0,VALID,24.9394,VALID,324,VALID,0.577344,
2013-01-14, 01:26:04,VALID,1009.8,VALID,0,VALID,104,VALID,0,VALID,24.9394,VALID,30,VALID,0.446484,
2013-01-14, 01:27:04,VALID,1009.81,VALID,0,VALID,104,VALID,0,VALID,24.9199,VALID,30,VALID,0.472266,
2013-01-14, 01:28:04,VALID,1009.77,VALID,0,VALID,104,VALID,0.112112,VALID,24.9394,VALID,343,VALID,0.833594,
2013-01-14, 01:29:04,VALID,1009.77,VALID,0,VALID,104,VALID,0.112112,VALID,24.9394,VALID,328,VALID,0.399609,
2013-01-14, 01:30:04,VALID,1009.78,VALID,0,VALID,104,VALID,0,VALID,24.9394,VALID,328,VALID,0.171094,
2013-01-14, 01:31:04,VALID,1009.77,VALID,0,VALID,104,VALID,0,VALID,24.9413,VALID,328,VALID,0.158594,
2013-01-14, 01:32:04,VALID,1009.77,VALID,0,VALID,104,VALID,0,VALID,24.9413,VALID,328,VALID,0.512891,
2013-01-14, 01:33:04,VALID,1009.79,VALID,0,VALID,104,VALID,0.112112,VALID,24.9004,VALID,328,VALID,0.730078,
2013-01-14, 01:34:04,VALID,1009.79,VALID,0,VALID,104,VALID,0,VALID,24.9004,VALID,333,VALID,0.916406,
2013-01-14, 01:35:04,VALID,1009.83,VALID,0,VALID,104,VALID,0.112112,VALID,24.9413,VALID,350,VALID,0.502734,
2013-01-14, 01:36:04,VALID,1009.85,VALID,0,VALID,104,VALID,0,VALID,24.9413,VALID,350,VALID,0.222266,
2013-01-14, 01:37:04,VALID,1009.89,VALID,0,VALID,104,VALID,0.112112,VALID,24.9199,VALID,350,VALID,0.168359,
2013-01-14, 01:38:04,VALID,1009.9,VALID,0,VALID,104,VALID,0,VALID,24.9394,VALID,350,VALID,0.258984,
2013-01-14, 01:39:04,VALID,1009.93,VALID,0,VALID,104,VALID,0.112112,VALID,24.9589,VALID,350,VALID,0.0402344,
2013-01-14, 01:40:04,VALID,1009.91,VALID,0,VALID,104,VALID,0.112112,VALID,24.9394,VALID,350,VALID,0.202344,
2013-01-14, 01:41:04,VALID,1009.9,VALID,0,VALID,104,VALID,0,VALID,24.9394,VALID,350,VALID,0.231641,
2013-01-14, 01:42:04,VALID,1009.92,VALID,0,VALID,104,VALID,0,VALID,24.9784,VALID,350,VALID,0.232031,
2013-01-14, 01:43:04,VALID,1009.95,VALID,0,VALID,104,VALID,0,VALID,24.9589,VALID,350,VALID,0.346094,
2013-01-14, 01:44:04,VALID,1009.97,VALID,0,VALID,104,VALID,0.112112,VALID,24.9589,VALID,350,VALID,0.458203,
2013-01-14, 01:45:04,VALID,1009.97,VALID,0,VALID,104,VALID,0,VALID,24.9803,VALID,350,VALID,0.458984,
2013-01-14, 01:46:04,VALID,1010,VALID,0,VALID,104,VALID,0,VALID,24.9979,VALID,350,VALID,0.136328,
2013-01-14, 01:47:04,VALID,1010,VALID,0,VALID,104,VALID,0.112112,VALID,24.9784,VALID,350,VALID,0.0636719,
2013-01-14, 01:48:04,VALID,1009.99,VALID,0,VALID,104,VALID,0,VALID,24.9784,VALID,350,VALID,0,
2013-01-14, 01:49:04,VALID,1010,VALID,0,VALID,104,VALID,0,VALID,24.9589,VALID,350,VALID,0.474219,
2013-01-14, 01:50:04,VALID,1009.98,VALID,0,VALID,104,VALID,0,VALID,24.9784,VALID,350,VALID,0.295312,
2013-01-14, 01:51:04,VALID,1009.97,VALID,0,VALID,104,VALID,0.112112,VALID,24.9784,VALID,350,VALID,0.137891,
2013-01-14, 01:52:04,VALID,1009.95,VALID,0,VALID,104,VALID,0,VALID,24.9784,VALID,350,VALID,0.316406,
2013-01-14, 01:53:04,VALID,1009.96,VALID,0,VALID,104,VALID,0,VALID,24.9784,VALID,350,VALID,0.546094,
2013-01-14, 01:54:04,VALID,1009.97,VALID,0,VALID,104,VALID,0,VALID,24.9998,VALID,350,VALID,0.153906,
2013-01-14, 01:55:04,VALID,1009.93,VALID,0,VALID,104,VALID,0,VALID,24.9998,VALID,350,VALID,0.360547,
2013-01-14, 01:56:04,VALID,1009.93,VALID,0,VALID,104,VALID,0,VALID,24.9589,VALID,350,VALID,0.279297,
2013-01-14, 01:57:04,VALID,1009.92,VALID,0,VALID,104,VALID,0,VALID,24.9394,VALID,350,VALID,0.220703,
2013-01-14, 01:58:04,VALID,1009.92,VALID,0,VALID,104,VALID,0,VALID,24.9394,VALID,350,VALID,0.347266,
2013-01-14, 01:59:04,VALID,1009.95,VALID,0,VALID,104,VALID,0,VALID,24.9413,VALID,333,VALID,0.456641,
2013-01-14, 02:00:04,VALID,1009.95,VALID,0,VALID,104,VALID,0.112112,VALID,24.9199,VALID,334,VALID,0.473047,
2013-01-14, 02:01:04,VALID,1009.98,VALID,0,VALID,104,VALID,0.112112,VALID,24.9413,VALID,336,VALID,0.435156,
2013-01-14, 02:02:04,VALID,1009.96,VALID,0,VALID,104,VALID,0,VALID,24.9394,VALID,336,VALID,0.874219,
2013-01-14, 02:03:04,VALID,1009.96,VALID,0,VALID,104,VALID,0.112112,VALID,24.9394,VALID,336,VALID,0.455859,
2013-01-14, 02:04:04,VALID,1009.93,VALID,0,VALID,104,VALID,0,VALID,24.9589,VALID,336,VALID,0.486719,
2013-01-14, 02:05:04,VALID,1009.93,VALID,0,VALID,104,VALID,0,VALID,24.9998,VALID,336,VALID,0.480469,
2013-01-14, 02:06:04,VALID,1009.9,VALID,0,VALID,104,VALID,0,VALID,24.9784,VALID,336,VALID,0.389844,
2013-01-14, 02:07:04,VALID,1009.91,VALID,0,VALID,104,VALID,0,VALID,24.9998,VALID,336,VALID,0.478906,
2013-01-14, 02:08:04,VALID,1009.88,VALID,0,VALID,104,VALID,0,VALID,24.9998,VALID,336,VALID,0.145313,
2013-01-14, 02:09:04,VALID,1009.85,VALID,0,VALID,104,VALID,0,VALID,24.9589,VALID,326,VALID,0.633594,
2013-01-14, 02:10:04,VALID,1009.81,VALID,0,VALID,104,VALID,0.112112,VALID,24.9803,VALID,326,VALID,0.370703,
2013-01-14, 02:11:04,VALID,1009.83,VALID,0,VALID,104,VALID,0,VALID,24.9998,VALID,356,VALID,0.442969,
2013-01-14, 02:12:04,VALID,1009.78,VALID,0,VALID,104,VALID,0,VALID,24.9998,VALID,360,VALID,0.330469,
2013-01-14, 02:13:04,VALID,1009.78,VALID,0,VALID,104,VALID,0,VALID,24.9589,VALID,360,VALID,0.305469,
2013-01-14, 02:14:04,VALID,1009.78,VALID,0,VALID,104,VALID,0,VALID,24.9803,VALID,40,VALID,0.544141,
2013-01-14, 02:15:04,VALID,1009.76,VALID,0,VALID,104,VALID,0,VALID,24.9608,VALID,40,VALID,0.0304688,
2013-01-14, 02:16:04,VALID,1009.72,VALID,0,VALID,104,VALID,0,VALID,24.9394,VALID,11,VALID,0.724219,
2013-01-14, 02:17:04,VALID,1009.72,VALID,0,VALID,104,VALID,0,VALID,24.9394,VALID,5,VALID,0.191406,
2013-01-14, 02:18:04,VALID,1009.68,VALID,0,VALID,104,VALID,0.112112,VALID,24.9784,VALID,24,VALID,0.487109,
2013-01-14, 02:19:04,VALID,1009.7,VALID,0,VALID,104,VALID,0,VALID,24.9589,VALID,24,VALID,0.338672,
2013-01-14, 02:20:04,VALID,1009.68,VALID,0,VALID,104,VALID,0.112112,VALID,24.9199,VALID,24,VALID,0.205078,
2013-01-14, 02:21:04,VALID,1009.72,VALID,0,VALID,104,VALID,0.112112,VALID,24.9413,VALID,331,VALID,0.673828,
2013-01-14, 02:22:04,VALID,1009.69,VALID,0,VALID,104,VALID,0.112112,VALID,24.9199,VALID,331,VALID,0.341406,
2013-01-14, 02:23:04,VALID,1009.68,VALID,0,VALID,104,VALID,0.112112,VALID,24.9199,VALID,331,VALID,0.273438,
2013-01-14, 02:24:04,VALID,1009.67,VALID,0,VALID,104,VALID,0.112112,VALID,24.9199,VALID,331,VALID,0.360547,
2013-01-14, 02:25:04,VALID,1009.66,VALID,0,VALID,104,VALID,0.112112,VALID,24.9199,VALID,331,VALID,0.108984,
2013-01-14, 02:26:04,VALID,1009.64,VALID,0,VALID,104,VALID,0,VALID,24.9199,VALID,331,VALID,0.124609,
2013-01-14, 02:27:04,VALID,1009.64,VALID,0,VALID,104,VALID,0,VALID,24.9199,VALID,331,VALID,0.189844,
2013-01-14, 02:28:04,VALID,1009.59,VALID,0,VALID,104,VALID,0,VALID,24.9004,VALID,331,VALID,0.0429688,
2013-01-14, 02:29:04,VALID,1009.59,VALID,0,VALID,104,VALID,0,VALID,24.9023,VALID,333,VALID,0.536719,
2013-01-14, 02:30:04,VALID,1009.57,VALID,0,VALID,104,VALID,0.112112,VALID,24.8809,VALID,333,VALID,0.608984,
2013-01-14, 02:31:04,VALID,1009.56,VALID,0,VALID,104,VALID,0,VALID,24.8828,VALID,333,VALID,0.301172,
2013-01-14, 02:32:04,VALID,1009.54,VALID,0,VALID,104,VALID,0.112112,VALID,24.8809,VALID,333,VALID,0.144531,
2013-01-14, 02:33:04,VALID,1009.55,VALID,0,VALID,104,VALID,0,VALID,24.8809,VALID,333,VALID,0,
2013-01-14, 02:34:04,VALID,1009.54,VALID,0,VALID,104,VALID,0,VALID,24.8809,VALID,333,VALID,0,
2013-01-14, 02:35:04,VALID,1009.56,VALID,0,VALID,104,VALID,0,VALID,24.9023,VALID,334,VALID,0.458203,
2013-01-14, 02:36:04,VALID,1009.55,VALID,0,VALID,104,VALID,0,VALID,24.8615,VALID,334,VALID,0.295312,
2013-01-14, 02:37:04,VALID,1009.57,VALID,0,VALID,104,VALID,0,VALID,24.8809,VALID,333,VALID,0.0234375,
2013-01-14, 02:38:04,VALID,1009.57,VALID,0,VALID,104,VALID,0,VALID,24.8615,VALID,334,VALID,0.425781,
2013-01-14, 02:39:04,VALID,1009.57,VALID,0,VALID,104,VALID,0,VALID,24.8615,VALID,334,VALID,0.396484,
2013-01-14, 02:40:04,VALID,1009.56,VALID,0,VALID,104,VALID,0,VALID,24.8828,VALID,334,VALID,0.342969,
2013-01-14, 02:41:04,VALID,1009.55,VALID,0,VALID,104,VALID,0,VALID,24.8225,VALID,333,VALID,0.403516,
2013-01-14, 02:42:04,VALID,1009.55,VALID,0,VALID,104,VALID,0.112112,VALID,24.8615,VALID,334,VALID,0.165234,
2013-01-14, 02:43:04,VALID,1009.54,VALID,0,VALID,104,VALID,0,VALID,24.8615,VALID,333,VALID,0,
2013-01-14, 02:44:04,VALID,1009.54,VALID,0,VALID,104,VALID,0,VALID,24.842,VALID,334,VALID,0.0015625,
2013-01-14, 02:45:04,VALID,1009.53,VALID,0,VALID,104,VALID,0.112112,VALID,24.842,VALID,333,VALID,0.515625,
2013-01-14, 02:46:04,VALID,1009.55,VALID,0,VALID,104,VALID,0.112112,VALID,24.842,VALID,301,VALID,0.653516,
2013-01-14, 02:47:04,VALID,1009.55,VALID,0,VALID,104,VALID,0,VALID,24.842,VALID,317,VALID,0.221484,
2013-01-14, 02:48:04,VALID,1009.54,VALID,0,VALID,104,VALID,0.112112,VALID,24.8615,VALID,318,VALID,0.146094,
2013-01-14, 02:49:04,VALID,1009.53,VALID,0,VALID,104,VALID,0.112112,VALID,24.8615,VALID,317,VALID,0.196094,
2013-01-14, 02:50:04,VALID,1009.53,VALID,0,VALID,104,VALID,0,VALID,24.8828,VALID,322,VALID,0.601563,
2013-01-14, 02:51:04,VALID,1009.53,VALID,0,VALID,104,VALID,0,VALID,24.8615,VALID,322,VALID,0.258594,
2013-01-14, 02:52:04,VALID,1009.51,VALID,0,VALID,104,VALID,0,VALID,24.842,VALID,322,VALID,0.309766,
2013-01-14, 02:53:04,VALID,1009.47,VALID,0,VALID,104,VALID,0,VALID,24.8225,VALID,322,VALID,0.298828,
2013-01-14, 02:54:04,VALID,1009.47,VALID,0,VALID,104,VALID,0,VALID,24.803,VALID,322,VALID,0.29375,
2013-01-14, 02:55:04,VALID,1009.44,VALID,0,VALID,104,VALID,0,VALID,24.803,VALID,358,VALID,0.244141,
2013-01-14, 02:56:04,VALID,1009.44,VALID,0,VALID,104,VALID,0.112112,VALID,24.8244,VALID,358,VALID,0.618359,
2013-01-14, 02:57:04,VALID,1009.42,VALID,0,VALID,104,VALID,0,VALID,24.803,VALID,6,VALID,0.477734,
2013-01-14, 02:58:04,VALID,1009.39,VALID,0,VALID,104,VALID,0.112112,VALID,24.803,VALID,6,VALID,0.285937,
2013-01-14, 02:59:04,VALID,1009.38,VALID,0,VALID,104,VALID,0,VALID,24.7835,VALID,5,VALID,0.502344,
2013-01-14, 03:00:04,VALID,1009.33,VALID,0,VALID,104,VALID,0.112112,VALID,24.764,VALID,5,VALID,0.344141,
2013-01-14, 03:01:04,VALID,1009.33,VALID,0,VALID,104,VALID,0,VALID,24.764,VALID,5,VALID,0.155469,
2013-01-14, 03:02:04,VALID,1009.31,VALID,0,VALID,104,VALID,0.112112,VALID,24.7445,VALID,5,VALID,0.328516,
2013-01-14, 03:03:04,VALID,1009.31,VALID,0,VALID,104,VALID,0.112112,VALID,24.7445,VALID,5,VALID,0.351172,
2013-01-14, 03:04:04,VALID,1009.27,VALID,0,VALID,104,VALID,0,VALID,24.725,VALID,5,VALID,0.235156,
2013-01-14, 03:05:04,VALID,1009.28,VALID,0,VALID,104,VALID,0.112112,VALID,24.725,VALID,4,VALID,0.0503906,
2013-01-14, 03:06:04,VALID,1009.3,VALID,0,VALID,104,VALID,0,VALID,24.7055,VALID,5,VALID,0.43125,
2013-01-14, 03:07:04,VALID,1009.3,VALID,0,VALID,104,VALID,0,VALID,24.7055,VALID,4,VALID,0,
2013-01-14, 03:08:04,VALID,1009.29,VALID,0,VALID,104,VALID,0,VALID,24.686,VALID,4,VALID,0,
2013-01-14, 03:09:04,VALID,1009.27,VALID,0,VALID,104,VALID,0,VALID,24.6879,VALID,5,VALID,0.255078,
2013-01-14, 03:10:04,VALID,1009.25,VALID,0,VALID,104,VALID,0.112112,VALID,24.686,VALID,5,VALID,0,
2013-01-14, 03:11:04,VALID,1009.23,VALID,0,VALID,104,VALID,0.112112,VALID,24.686,VALID,4,VALID,0.305078,
2013-01-14, 03:12:04,VALID,1009.21,VALID,0,VALID,104,VALID,0,VALID,24.6666,VALID,4,VALID,0.14375,
2013-01-14, 03:13:04,VALID,1009.2,VALID,0,VALID,104,VALID,0,VALID,24.6666,VALID,4,VALID,0.282031,
2013-01-14, 03:14:04,VALID,1009.19,VALID,0,VALID,104,VALID,0.112112,VALID,24.686,VALID,5,VALID,0.334375,
2013-01-14, 03:15:04,VALID,1009.14,VALID,0,VALID,104,VALID,0.112112,VALID,24.686,VALID,5,VALID,0.18125,
2013-01-14, 03:16:04,VALID,1009.12,VALID,0,VALID,104,VALID,0.112112,VALID,24.6666,VALID,5,VALID,0.378906,
2013-01-14, 03:17:04,VALID,1009.11,VALID,0,VALID,104,VALID,0,VALID,24.6684,VALID,5,VALID,0.176953,
2013-01-14, 03:18:04,VALID,1009.1,VALID,0,VALID,104,VALID,0,VALID,24.6294,VALID,5,VALID,0.0914062,
2013-01-14, 03:19:04,VALID,1009.06,VALID,0,VALID,104,VALID,0,VALID,24.6294,VALID,5,VALID,0,
2013-01-14, 03:20:04,VALID,1009.06,VALID,0,VALID,104,VALID,0,VALID,24.6099,VALID,5,VALID,0.260156,
2013-01-14, 03:21:04,VALID,1009.02,VALID,0,VALID,104,VALID,0,VALID,24.6294,VALID,4,VALID,0.0410156,
2013-01-14, 03:22:04,VALID,1009.03,VALID,0,VALID,104,VALID,0,VALID,24.6099,VALID,4,VALID,0.162109,
2013-01-14, 03:23:04,VALID,1009.03,VALID,0,VALID,104,VALID,0,VALID,24.6099,VALID,5,VALID,0.0265625,
2013-01-14, 03:24:04,VALID,1009.01,VALID,0,VALID,104,VALID,0,VALID,24.5905,VALID,5,VALID,0.211328,
2013-01-14, 03:25:04,VALID,1008.99,VALID,0,VALID,104,VALID,0,VALID,24.5905,VALID,5,VALID,0.275781,
2013-01-14, 03:26:04,VALID,1009,VALID,0,VALID,104,VALID,0,VALID,24.5923,VALID,360,VALID,0.483594,
2013-01-14, 03:27:04,VALID,1009.01,VALID,0,VALID,104,VALID,0,VALID,24.571,VALID,349,VALID,0.296094,
2013-01-14, 03:28:04,VALID,1009.03,VALID,0,VALID,104,VALID,0,VALID,24.5905,VALID,333,VALID,0.665625,
2013-01-14, 03:29:04,VALID,1009.07,VALID,0,VALID,104,VALID,0,VALID,24.6099,VALID,332,VALID,0.268359,
2013-01-14, 03:30:04,VALID,1009.05,VALID,0,VALID,104,VALID,0,VALID,24.6294,VALID,333,VALID,0.0652344,
2013-01-14, 03:31:04,VALID,1009.04,VALID,0,VALID,104,VALID,0,VALID,24.6508,VALID,333,VALID,0.398047,
2013-01-14, 03:32:04,VALID,1009.1,VALID,0,VALID,104,VALID,0,VALID,24.6471,VALID,360,VALID,0.637891,
2013-01-14, 03:33:04,VALID,1009.1,VALID,0,VALID,104,VALID,0,VALID,24.6471,VALID,12,VALID,0.540625,
2013-01-14, 03:34:04,VALID,1009.11,VALID,0,VALID,104,VALID,0,VALID,24.7074,VALID,25,VALID,0.567578,
2013-01-14, 03:35:04,VALID,1009.12,VALID,0,VALID,104,VALID,0.112112,VALID,24.7074,VALID,358,VALID,0.5125,
2013-01-14, 03:36:04,VALID,1009.12,VALID,0,VALID,104,VALID,0,VALID,24.7074,VALID,11,VALID,0.699609,
2013-01-14, 03:37:04,VALID,1009.14,VALID,0,VALID,104,VALID,0,VALID,24.7055,VALID,11,VALID,0.131641,
2013-01-14, 03:38:04,VALID,1009.1,VALID,0,VALID,104,VALID,0,VALID,24.7055,VALID,12,VALID,0.0726563,
2013-01-14, 03:39:04,VALID,1009.1,VALID,0,VALID,104,VALID,0,VALID,24.686,VALID,2,VALID,0.340625,
2013-01-14, 03:40:04,VALID,1009.08,VALID,0,VALID,104,VALID,0,VALID,24.7074,VALID,336,VALID,0.505078,
2013-01-14, 03:41:04,VALID,1009.1,VALID,0,VALID,104,VALID,0.112112,VALID,24.686,VALID,338,VALID,0.455078,
2013-01-14, 03:42:04,VALID,1009.14,VALID,0,VALID,104,VALID,0,VALID,24.6879,VALID,333,VALID,0.864062,
2013-01-14, 03:43:04,VALID,1009.16,VALID,0,VALID,103.992,VALID,0,VALID,24.6666,VALID,333,VALID,0.760547,
2013-01-14, 03:44:04,VALID,1009.21,VALID,0,VALID,104,VALID,0.112112,VALID,24.6471,VALID,333,VALID,0.585938,
2013-01-14, 03:45:04,VALID,1009.21,VALID,0,VALID,104,VALID,0.112112,VALID,24.6666,VALID,330,VALID,0.336719,
2013-01-14, 03:46:04,VALID,1009.23,VALID,0,VALID,104,VALID,0,VALID,24.6276,VALID,330,VALID,0.221094,
2013-01-14, 03:47:04,VALID,1009.24,VALID,0,VALID,104,VALID,0,VALID,24.6471,VALID,330,VALID,0.371094,